Location: Keppel Henge
(44.7900°N, 80.9447°W)
Time: 16:56:29
(UTC-04:00)

N. Korean satellite - Pass Details

Date: 14 October 2017
Orbit: 459 x 517 km, 97.2° (Epoch: 23 October)

Event Time Altitude Azimuth Distance (km) Brightness Sun altitude
Rises 19:23:38 0° 168° (SSE) 2,546 10.1 -8.5°
Reaches altitude 10° 19:25:43 10° 169° (SSE) 1,661 9.2 -8.8°
Maximum altitude 19:29:17 85° 257° (WSW) 486 6.6 -9.5°
Drops below altitude 10° 19:32:49 10° 347° (NNW) 1,644 9.4 -10.1°
Sets 19:34:52 0° 348° (NNW) 2,519 10.3 -10.4°
